Tracking 20242 objects as of 24-Jan-2020
HD Live streaming from Space Station
objects crossing your sky now

COSMOS 2209

Track COSMOS 2209 now!
COSMOS 2209 is classified as:


NORAD ID: 22112
Int'l Code: 1992-059A
Perigee: 35,715.8 km
Apogee: 35,823.5 km
Inclination: 15.0 °
Period: 1,434.9 minutes
Semi major axis: 42140 km
RCS: 5.0119 m2 (large)
Launch date: September 10, 1992
Source: Commonwealth of Independent States (former USSR) (CIS)
Launch site: TYURATAM MISSILE AND SPACE COMPLEX (TTMTR)
aabbcc
Your satellite tracking list
Your tracking list is empty




NASA's NSSDC Master Catalog

Two Line Element Set (TLE):
1 22112U 92059A   20022.58397603 +.00000079 +00000-0 +00000-0 0  9996
2 22112 014.9651 001.6431 0012776 294.5307 250.1381 01.00357733100217
Source of the keplerian elements: AFSPC